Miscellaneous Local Product
Issued by NWS Hastings, NE

Home | Current Version | Previous Version | Graphics & Text | Print | Product List | Glossary Off
Versions: 1 2 3 4 5 6 7 8 9 10 11 12 13 14 15 16 17 18 19 20 21 22 23 24 25 26 27 28 29 30 31 32 33 34 35 36 37 38 39 40 41 42 43 44 45 46 47 48 49 50

615
AXUS43 KGID 161602
MISGRI

GID CWA HOURLY WEATHER ROUNDUP
NATIONAL WEATHER SERVICE HASTINGS NE
1000 AM CST SAT DEC 16 2017

NOTE: "FAIR" INDICATES FEW OR NO CLOUDS BELOW 12,000 FEET WITH NO
SIGNIFICANT WEATHER AND/OR OBSTRUCTIONS TO VISIBILITY.

...SOUTH CENTRAL NEBRASKA...

CITY           SKY/WX    TMP DP  RH WIND       PRES   REMARKS
GRAND ISLAND   CLOUDY    44  27  51 N12       29.81R
KEARNEY        CLOUDY    45  23  42 N12       29.81R
HASTINGS       CLOUDY    43  24  47 NE9       29.80R
ORD            CLOUDY    36  27  69 NW7       29.84R WCI  30
YORK           PTSUNNY   39  27  60 N10       29.80R WCI  32
AURORA         CLOUDY    41  27  56 N8        29.81R
LEXINGTON      CLOUDY    45  22  41 NE8       29.81R
HOLDREGE       CLOUDY    45  24  44 N14       29.79R
HEBRON         SUNNY     39  24  53 S5        29.81R

...NEBRASKA PANHANDLE...

CITY           SKY/WX    TMP DP  RH WIND       PRES   REMARKS
CHADRON        CLOUDY    34  22  61 CALM      29.92R
ALLIANCE       CLOUDY    33  20  58 N13       29.87R WCI  24
SCOTTSBLUFF    CLOUDY    39  18  42 W3        29.87R
SIDNEY         CLOUDY    40  14  34 NE14      29.84R WCI  32

...WESTERN AND NORTH CENTRAL NEBRASKA...

CITY           SKY/WX    TMP DP  RH WIND       PRES   REMARKS
VALENTINE      CLOUDY    38  28  67 N13       29.88R WCI  30
AINSWORTH      CLOUDY    37  29  72 N12       29.88R WCI  29
ONEILL         CLOUDY    36  29  75 NW8       29.87R WCI  30
BROKEN BOW     CLOUDY    41  26  55 N12       29.82R
IMPERIAL       CLOUDY    38  16  40 N13       29.81R WCI  30
NORTH PLATTE   CLOUDY    42  21  43 NE13      29.82R
MCCOOK         CLOUDY    41  20  43 NE5       29.78R

...EASTERN NEBRASKA...

CITY           SKY/WX    TMP DP  RH WIND       PRES   REMARKS
NORFOLK        CLOUDY    39  27  62 N7        29.81R WCI  34
SO SIOUX CITY  CLOUDY    38  27  64 NW9       29.83R WCI  31
TEKAMAH        SUNNY     39  24  55 N5        29.82R
COLUMBUS       CLOUDY    36  24  62 NW5       29.83R WCI  32
ALBION         CLOUDY    37  28  70 NW8       29.83R WCI  31
OMAHA EPPLEY   PTSUNNY   38  23  55 E3        29.82R
OFFUTT AFB     SUNNY     37  25  60 CALM      29.81R
MILLARD        CLOUDY    40  24  52 CALM      29.81R
LINCOLN        SUNNY     38  21  50 CALM      29.83R
NEBRASKA CITY  SUNNY     41  26  55 SW8       29.83R
BEATRICE       SUNNY     38  26  61 S5        29.83R WCI  34
FALLS CITY     SUNNY     41  25  53 S7        29.84R

...NORTHERN KANSAS...

CITY           SKY/WX    TMP DP  RH WIND       PRES   REMARKS
GOODLAND       CLOUDY    45  13  27 NE10      29.77R
HILL CITY      SUNNY     37  18  46 CALM      29.78R
NORTON         SUNNY     48  12  23 NE12      29.76S
PHILLIPSBURG   SUNNY     37  16  41 N5        29.79S WCI  34
HAYS           SUNNY     36  19  50 SW9       29.78S WCI  29
RUSSELL        SUNNY     37  22  54 S10       29.78R WCI  30
CONCORDIA      SUNNY     41  23  48 S7        29.82R
SALINA         SUNNY     43  26  51 SW12      29.85R
TOPEKA         SUNNY    N/A N/A N/A SW9       29.89R



USA.gov is the U.S. government's official web portal to all federal, state and local government web resources and services.